Weather History for KGLY - May, 2013

Change the Weather History Date:

Sunday, May 26, 2013

  Actual Average (KDMO) Record (KDMO)
Temperature  
Mean Temperature 75 °F 69 °F  
Max Temperature 84 °F 79 °F 93 °F (1953)
Min Temperature 66 °F 59 °F 37 °F (1988)
Degree Days  
Heating Degree Days 0 1  
Month to date heating degree days 78  
Since 1 July heating degree days 4560  
Cooling Degree Days 10 5  
Month to date cooling degree days 76  
Year to date cooling degree days 110  
Growing Degree Days 25 (Base 50)    
Moisture  
Dew Point 66 °F    
Average Humidity 74    
Maximum Humidity 94    
Minimum Humidity 58    
Precipitation  
Precipitation 0.00 in 0.14 in 2.50 in (2000)
Month to date precipitation 3.96  
Year to date precipitation 14.42  
Sea Level Pressure  
Sea Level Pressure 30.03 in    
Wind  
Wind Speed 6 mph (South)    
Max Wind Speed 15 mph    
Max Gust Speed 23 mph    
Visibility 10 miles    
Events      
T = Trace of Precipitation, MM = Missing Value Source: NWS Daily Summary

Daily Weather History Graph

Daily Weather History Graph

Search for Another Location

Airport or City:

Trip Planner

Search our weather history database for the weather conditions in past years. The results will help you decide how hot, cold, wet, or windy it might be!

Date:

Astronomy

May. 26, 2013 Rise Set
Actual Time 5:55 AM CDT 8:28 PM CDT
Civil Twilight 5:24 AM CDT 8:59 PM CDT
Nautical Twilight 4:46 AM CDT 9:37 PM CDT
Astronomical Twilight 4:04 AM CDT 10:19 PM CDT
Moon 10:17 PM CDT (5/26) 7:25 AM CDT (5/26)
Length of Visible Light 15h 34m
Length of Day
14h 33m
Waning Gibbous, 96% of the Moon is Illuminated
May 26
Waning Gibbous
May 31
Last Quarter
Jun 8
New
Jun 16
First Quarter
Jun 23
Full

Hourly Weather History & Observations

Time (CDT) Temp. Heat Index Dew Point Humidity Pressure Visibility Wind Dir Wind Speed Gust Speed Precip Events Conditions
12:15 AM 69.8 °F - 64.4 °F 83% 30.09 in 10.0 mi SSE 5.8 mph - N/A   Scattered Clouds
12:35 AM 69.8 °F - 64.4 °F 83% 30.10 in 10.0 mi Calm Calm - N/A   Scattered Clouds
12:55 AM 69.8 °F - 64.4 °F 83% 30.10 in 10.0 mi SSE 4.6 mph - N/A   Scattered Clouds
1:15 AM 69.8 °F - 64.4 °F 83% 30.10 in 10.0 mi South 5.8 mph - N/A   Partly Cloudy
1:35 AM 69.8 °F - 64.4 °F 83% 30.09 in 10.0 mi South 5.8 mph - N/A   Clear
1:55 AM 69.8 °F - 64.4 °F 83% 30.09 in 10.0 mi South 6.9 mph - N/A   Clear
2:15 AM 69.8 °F - 64.4 °F 83% 30.08 in 10.0 mi South 5.8 mph - N/A   Clear
2:35 AM 69.8 °F - 64.4 °F 83% 30.08 in 10.0 mi Calm Calm - N/A   Scattered Clouds
2:55 AM 68.0 °F - 64.4 °F 88% 30.08 in 10.0 mi Calm Calm - N/A   Partly Cloudy
3:15 AM 68.0 °F - 64.4 °F 88% 30.08 in 10.0 mi South 5.8 mph - N/A   Clear
3:35 AM 68.0 °F - 64.4 °F 88% 30.08 in 10.0 mi South 6.9 mph - N/A   Clear
3:55 AM 68.0 °F - 64.4 °F 88% 30.08 in 10.0 mi South 8.1 mph - N/A   Clear
4:15 AM 68.0 °F - 64.4 °F 88% 30.08 in 10.0 mi South 5.8 mph - N/A   Clear
4:35 AM 66.2 °F - 64.4 °F 94% 30.08 in 10.0 mi Calm Calm - N/A   Clear
4:55 AM 66.2 °F - 64.4 °F 94% 30.08 in 10.0 mi Calm Calm - N/A   Partly Cloudy
5:15 AM 66.2 °F - 64.4 °F 94% 30.07 in 10.0 mi SSE 5.8 mph - N/A   Scattered Clouds
5:35 AM 66.2 °F - 64.4 °F 94% 30.07 in 10.0 mi SSE 3.5 mph - N/A   Partly Cloudy
5:55 AM 68.0 °F - 64.4 °F 88% 30.07 in 10.0 mi South 5.8 mph - N/A   Scattered Clouds
6:15 AM 68.0 °F - 64.4 °F 88% 30.07 in 9.0 mi Calm Calm - N/A   Mostly Cloudy
6:35 AM 68.0 °F - 64.4 °F 88% 30.07 in 8.0 mi South 6.9 mph - N/A   Scattered Clouds
6:55 AM 69.8 °F - 64.4 °F 83% 30.08 in 9.0 mi SSE 6.9 mph - N/A   Clear
7:15 AM 69.8 °F - 64.4 °F 83% 30.08 in 8.0 mi South 6.9 mph - N/A   Clear
7:35 AM 69.8 °F - 64.4 °F 83% 30.08 in 9.0 mi SSE 8.1 mph - N/A   Clear
7:55 AM 69.8 °F - 64.4 °F 83% 30.08 in 9.0 mi SSE 8.1 mph - N/A   Clear
8:15 AM 71.6 °F - 64.4 °F 78% 30.08 in 9.0 mi South 8.1 mph - N/A   Clear
8:35 AM 71.6 °F - 64.4 °F 78% 30.08 in 9.0 mi South 9.2 mph - N/A   Clear
8:55 AM 71.6 °F - 64.4 °F 78% 30.08 in 10.0 mi South 10.4 mph - N/A   Clear
9:15 AM 73.4 °F - 66.2 °F 78% 30.08 in 9.0 mi SSE 9.2 mph - N/A   Clear
9:35 AM 75.2 °F - 66.2 °F 73% 30.08 in 9.0 mi South 9.2 mph - N/A   Clear
9:55 AM 73.4 °F - 66.2 °F 78% 30.08 in 9.0 mi South 10.4 mph - N/A   Clear
10:15 AM 75.2 °F - 66.2 °F 73% 30.08 in 10.0 mi South 6.9 mph - N/A   Clear
10:35 AM 75.2 °F - 68.0 °F 78% 30.08 in 9.0 mi South 9.2 mph - N/A   Clear
10:55 AM 78.8 °F - 69.8 °F 74% 30.08 in 9.0 mi South 10.4 mph - N/A   Scattered Clouds
11:15 AM 78.8 °F - 69.8 °F 74% 30.07 in 9.0 mi South 10.4 mph 18.4 mph N/A   Scattered Clouds
11:35 AM 78.8 °F - 69.8 °F 74% 30.07 in 10.0 mi South 10.4 mph - N/A   Mostly Cloudy
11:55 AM 78.8 °F - 69.8 °F 74% 30.07 in 10.0 mi SSW 12.7 mph - N/A   Partly Cloudy
12:15 PM 80.6 °F 83.9 °F 69.8 °F 70% 30.06 in 10.0 mi South 13.8 mph - N/A   Partly Cloudy
12:35 PM 80.6 °F 83.9 °F 69.8 °F 70% 30.05 in 9.0 mi South 11.5 mph 19.6 mph N/A   Partly Cloudy
12:55 PM 80.6 °F 83.9 °F 69.8 °F 70% 30.05 in 9.0 mi South 13.8 mph 23.0 mph N/A   Scattered Clouds
1:15 PM 82.4 °F 86.3 °F 69.8 °F 66% 30.04 in 10.0 mi South 11.5 mph 21.9 mph N/A   Mostly Cloudy
1:35 PM 80.6 °F 83.9 °F 69.8 °F 70% 30.04 in 9.0 mi South 9.2 mph 19.6 mph N/A   Mostly Cloudy
1:55 PM 82.4 °F 86.3 °F 69.8 °F 66% 30.03 in 10.0 mi South 15.0 mph 20.7 mph N/A   Mostly Cloudy
2:15 PM 80.6 °F 83.9 °F 69.8 °F 70% 30.03 in 10.0 mi South 8.1 mph - N/A   Mostly Cloudy
2:35 PM 82.4 °F 86.3 °F 69.8 °F 66% 30.03 in 9.0 mi South 12.7 mph 19.6 mph N/A   Mostly Cloudy
2:55 PM 84.2 °F 88.4 °F 69.8 °F 62% 30.02 in 9.0 mi South 12.7 mph 17.3 mph N/A   Partly Cloudy
3:15 PM 84.2 °F 88.4 °F 69.8 °F 62% 30.01 in 9.0 mi South 12.7 mph 18.4 mph N/A   Partly Cloudy
3:35 PM 82.4 °F 86.3 °F 69.8 °F 66% 30.01 in 10.0 mi South 15.0 mph 18.4 mph N/A   Scattered Clouds
3:55 PM 82.4 °F 86.3 °F 69.8 °F 66% 29.99 in 10.0 mi South 8.1 mph - N/A   Scattered Clouds
4:15 PM 84.2 °F 87.3 °F 68.0 °F 58% 29.99 in 9.0 mi South 15.0 mph 20.7 mph N/A   Scattered Clouds
4:35 PM 82.4 °F 84.6 °F 66.2 °F 58% 29.99 in 10.0 mi South 12.7 mph 18.4 mph N/A   Scattered Clouds
4:55 PM 82.4 °F 84.6 °F 66.2 °F 58% 29.99 in 10.0 mi South 10.4 mph - N/A   Partly Cloudy
5:15 PM 82.4 °F 84.6 °F 66.2 °F 58% 29.98 in 10.0 mi SSW 13.8 mph 18.4 mph N/A   Partly Cloudy
5:35 PM 82.4 °F 84.6 °F 66.2 °F 58% 29.97 in 9.0 mi South 12.7 mph - N/A   Clear
5:55 PM 82.4 °F 84.6 °F 66.2 °F 58% 29.97 in 10.0 mi SSW 12.7 mph 19.6 mph N/A   Clear
6:15 PM 82.4 °F 84.6 °F 66.2 °F 58% 29.96 in 9.0 mi SSW 11.5 mph 17.3 mph N/A   Clear
6:35 PM 82.4 °F 84.6 °F 66.2 °F 58% 29.96 in 10.0 mi SSW 12.7 mph - N/A   Clear
6:55 PM 82.4 °F 84.6 °F 66.2 °F 58% 29.95 in 10.0 mi SSW 8.1 mph - N/A   Partly Cloudy
7:15 PM 80.6 °F 82.7 °F 66.2 °F 61% 29.95 in 9.0 mi South 8.1 mph - N/A   Clear
7:35 PM 80.6 °F 82.7 °F 66.2 °F 61% 29.95 in 9.0 mi South 8.1 mph - N/A   Clear
7:55 PM 78.8 °F - 66.2 °F 65% 29.95 in 9.0 mi South 6.9 mph - N/A   Clear
8:15 PM 78.8 °F - 66.2 °F 65% 29.96 in 9.0 mi South 4.6 mph - N/A   Clear
8:35 PM 77.0 °F - 66.2 °F 69% 29.96 in 9.0 mi South 4.6 mph - N/A   Clear
8:55 PM 75.2 °F - 66.2 °F 73% 29.96 in 9.0 mi South 6.9 mph - N/A   Clear
9:15 PM 75.2 °F - 66.2 °F 73% 29.96 in 10.0 mi South 4.6 mph - N/A   Scattered Clouds
9:35 PM 73.4 °F - 66.2 °F 78% 29.97 in 8.0 mi Calm Calm - N/A   Scattered Clouds
9:55 PM 75.2 °F - 66.2 °F 73% 29.98 in 10.0 mi Calm Calm - N/A   Mostly Cloudy
10:15 PM 75.2 °F - 66.2 °F 73% 29.98 in 10.0 mi Calm Calm - N/A   Overcast
10:35 PM 75.2 °F - 66.2 °F 73% 29.98 in 10.0 mi Calm Calm - N/A   Overcast
10:55 PM 75.2 °F - 66.2 °F 73% 29.98 in 10.0 mi Calm Calm - N/A   Overcast
11:15 PM 75.2 °F - 64.4 °F 69% 29.97 in 10.0 mi South 4.6 mph - N/A   Overcast
11:35 PM 75.2 °F - 64.4 °F 69% 29.97 in 10.0 mi Calm Calm - N/A   Mostly Cloudy
11:55 PM 73.4 °F - 64.4 °F 73% 29.98 in 10.0 mi Calm Calm - N/A   Scattered Clouds